Погода в Сан-Андресе

Колумбия     12°34′58″N   81°42′23″W
темп.,
°C
ветер,
м/с
пор.,
м/с
влажн.,
%
обл.,
%
осадки,
мм/ч
давл.,
гПа
погр.,
м
21 апреля, ср
ср2101:00+27в7876100 0.3 10121084
04:00+27всв6773100 0.1 10111024
07:00+27св8979100 0.5 1013669
10:00+27всв10108070 0.3 1014806
13:00+27всв910755 0.3 10131008
16:00+27всв897311 0.0 10111173
19:00+27всв7872100 0.1 10121286
22:00+27всв8968100 0.2 10141429
22 апреля, чт
чт2201:00+27всв787333 0.4 10131103
04:00+27всв88765 0.3 1012884
07:00+27всв89744 0.4 10131007
10:00+27всв897415 0.1 1015926
13:00+27всв89720 0.1 10131093
16:00+27всв89740 0.1 10111066
19:00+27всв89740 0.1 10121037
22:00+27св89775 0.1 1014972
23 апреля, пт
пт2301:00+27св89773 0.3 1013989
04:00+27св89756 0.4 1012982
07:00+27всв89725 0.4 10141109
10:00+27св887616 0.1 1015936
13:00+27всв88755 0.3 10131000
16:00+27всв78735 0.0 1011902
19:00+27всв77745 0.0 1012893
22:00+27всв777510 0.0 1014968
24 апреля, сб
сб2401:00+26всв6777100 0.2 1012635
04:00+26всв7778100 0.4 1011708
07:00+27всв7772100 0.4 10131017
10:00+27в677367 0.1 1014724
13:00+27в4570100 0.1 1013657
16:00+27всв5575100 0.0 1010805
19:00+27всв667697 0.0 1011800
22:00+27всв66755 0.0 1013819
25 апреля, вс
вс2501:00+27всв777682 0.1 1012833
04:00+27св6775100 0.2 1011580
07:00+27всв8878100 0.4 1012797
10:00+27всв787715 0.0 1014866
13:00+27всв787916 0.0 1013809
16:00+27всв77767 0.1 1010871
19:00+27св78778 0.1 1011869
22:00+27всв78805 0.1 1013766